Have a Safe July 4th! 

Flight Track Log - Related Links

Times and Time Zones

All times are in EST time to prevent confusion due to time zone crossing. See the N81EZ flight status page for this flight to view local times or setup timezone preferences in your user account.

Time Position Orientation Groundspeed Altitude Reporting Facility
EST Latitude Longitude Course Direction KTS MPH feet Rate Location/Type
Thu 05:22:21 PM 42.2578 -85.2989 227° Southwest 82 94 3,200  Level Chicago Center
Thu 05:23:23 PM 42.2350 -85.3158 209° Southwest 90 104 4,000 387 Climbing Chicago Center
Thu 05:24:25 PM 42.2039 -85.3417 212° Southwest 104 120 4,000  Level Chicago Center
Thu 05:25:27 PM 42.1811 -85.3633 215° Southwest 112 129 4,000  Level Chicago Center
Thu 05:26:00 PM 42.3065 -85.2501 77° East  Level Estimated
Thu 05:26:29 PM 42.1556 -85.3883 216° Southwest 107 123 4,000  Level Chicago Center
Thu 05:27:00 PM 42.3065 -85.2501 227° Southwest  Level Estimated
Thu 05:27:32 PM 42.1317 -85.4114 216° Southwest 106 122 4,000  Level Chicago Center
Thu 05:28:34 PM 42.1075 -85.4333 214° Southwest 106 122 4,000  Level Chicago Center
Thu 05:29:36 PM 42.0778 -85.4614 215° Southwest 107 123 4,000  Level Chicago Center
Thu 05:30:38 PM 42.0528 -85.4844 214° Southwest 109 125 4,000  Level Chicago Center
Thu 05:31:40 PM 42.0278 -85.5072 214° Southwest 109 125 4,000 -48 Level Chicago Center
Thu 05:32:42 PM 41.9939 -85.5017 173° South 129 148 3,900 -242 Descending Chicago Center
Thu 05:33:44 PM 41.9594 -85.4922 168° South 128 147 3,500 -484 Descending Chicago Center
Thu 05:34:46 PM 41.9253 -85.4778 163° South 137 158 2,900 -290 Descending Chicago Center
Thu 05:35:48 PM 41.9461 -85.4614 30° Northeast 127 146 2,900 48 Level Chicago Center
Thu 05:36:51 PM 41.9639 -85.4911 309° West 111 128 3,000 -48 Climbing Chicago Center
Thu 05:37:53 PM 41.9944 -85.5000 348° North 112 129 2,800 -145 Descending Chicago Center
Thu 05:38:55 PM 42.0253 -85.5083 349° North 113 130 2,700  Descending Chicago Center
Thu 05:39:57 PM 42.0536 -85.5139 352° North 109 125 2,800  Climbing Chicago Center
Thu 05:40:59 PM 42.0836 -85.5178 355° North 108 124 2,700  Descending Chicago Center
Thu 05:42:01 PM 42.1186 -85.5244 352° North 107 123 2,800 -97 Climbing Chicago Center
Thu 05:43:03 PM 42.1458 -85.5306 351° North 103 119 2,500 -484 Descending Chicago Center
Thu 05:44:05 PM 42.1742 -85.5389 348° North 103 119 1,800 -581 Descending Chicago Center
Thu 05:45:07 PM 42.2025 -85.5458 350° North 103 119 1,300 -484 Descending Chicago Center

Login

Don't have an account? Register now (free) for customized features, flight alerts, and more!